Regional Weather Roundup
Issued by NWS

Home | Current Version | Previous Version | Graphics & Text | Print | Product List | Glossary On
Versions: 1 2 3 4 5 6 7 8 9 10 11 12 13 14 15 16 17 18 19 20 21 22 23 24 25 26 27 28 29 30 31 32 33 34 35 36 37 38 39 40 41 42 43 44 45 46 47 48 49 50
000
ASUS43 KLMK 040610
RWRKY
KENTUCKY REGIONAL WEATHER ROUNDUP
NATIONAL WEATHER SERVICE LOUISVILLE KY
200 AM EDT FRI SEP 04 2015

NOTE "FAIR" INDICATES FEW OR NO CLOUDS BELOW 12,000 FEET
WITH NO SIGNIFICANT WEATHER AND/OR OBSTRUCTIONS TO VISIBILITY.

KYZ001>023-026-027-061>063-070>075-040700-
WESTERN AND SOUTH CENTRAL KENTUCKY

CITY           SKY/WX    TMP DP  RH WIND       PRES   REMARKS
PADUCAH        CLEAR     70  67  90 CALM      29.95F FOG
HENDERSON      CLEAR     68  64  88 CALM      29.96S
OWENSBORO      CLEAR     73  70  91 CALM      29.98R
HOPKINSVILLE   CLEAR     73  68  84 E1        29.98R
BOWLING GREEN  CLEAR     71  69  93 CALM      29.98S
GLASGOW        CLEAR     67  67 100 CALM      29.99S FOG
$$

KYZ024-025-028>034-038-045-046-053-040700-
NORTH CENTRAL KENTUCKY

CITY           SKY/WX    TMP DP  RH WIND       PRES   REMARKS
LOUISVILLE/SDF CLEAR     77  68  73 CALM      29.97S
LOUISVILLE/LOU CLEAR     74  68  81 CALM      29.98S
FORT KNOX      CLEAR     68  65  92 CALM      29.97S FOG
$$

KYZ035>037-039>044-047>052-055>060-089>105-040700-
NORTHEAST KENTUCKY

CITY           SKY/WX    TMP DP  RH WIND       PRES   REMARKS
LEXINGTON      CLEAR     70  66  87 S3        30.00S
COVINGTON      CLEAR     71  67  87 CALM      29.98S
FRANKFORT      CLEAR     70  66  87 CALM      29.99R FOG
$$

KYZ054-064>069-076>088-106>120-040700-
SOUTHEAST KENTUCKY

CITY           SKY/WX    TMP DP  RH WIND       PRES   REMARKS
JACKSON        CLEAR     72  66  81 CALM      30.02S
LONDON         CLEAR     69  65  86 CALM      30.01F FOG
SOMERSET       CLEAR     66  66 100 CALM      30.02S FOG
MIDDLESBORO    CLEAR     66  65  99 CALM      30.03S
MONTICELLO     CLEAR     64  64 100 CALM      30.03S FOG
$$




USA.gov is the U.S. government's official web portal to all federal, state and local government web resources and services.